Regional Weather Roundup
Issued by NWS Kansas City/Pleasant Hill, MO

Home | Current Version | Previous Version | Graphics & Text | Print | Product List | Glossary Off
Versions: 1 2 3 4 5 6 7 8 9 10 11 12 13 14 15 16 17 18 19 20 21 22 23 24 25 26 27 28 29 30 31 32 33 34 35 36 37 38 39 40 41 42 43 44 45 46 47 48 49 50

976
ASUS43 KEAX 200010
RWREAX

WEATHER ROUNDUP FOR EASTERN KANSAS AND NORTHWEST MISSOURI
NATIONAL WEATHER SERVICE KANSAS CITY/PLEASANT HILL MO
600 PM CST SUN NOV 19 2017

KSZ040-057-103>105-MOZ028-029-037-043-200100-
...KANSAS CITY METROPOLITAN AREA...

CITY           SKY/WX    TMP DP  RH WIND       PRES   REMARKS
K.C. INTL      PTCLDY    37  28  70 S10       30.09F WCI  30
6HR MIN TEMP:  37; 6HR MAX TEMP:  52;

K.C. DOWNTOWN  CLEAR     47  28  47 S8        30.11S
6HR MIN TEMP:  46; 6HR MAX TEMP:  54;

LEES SUMMIT    CLEAR     46  29  51 S10       30.12F
6HR MIN TEMP:  44; 6HR MAX TEMP:  51;

OLATHE - IXD   CLEAR     41  29  62 S6        30.12S
6HR MIN TEMP:  41; 6HR MAX TEMP:  53;

OLATHE - OJC   CLEAR     43  29  57 S5        30.12S
6HR MIN TEMP:  43; 6HR MAX TEMP:  51;

LAWRENCE       CLEAR     42  29  59 SE8       30.10F

$$

MOZ001>008-011>017-020>025-030>033-038>040-044>046-053-054-200100-
...NORTHERN AND CENTRAL MISSOURI...

CITY           SKY/WX    TMP DP  RH WIND       PRES   REMARKS
ST. JOSEPH     CLEAR     41  28  60 S8        30.07F
6HR MIN TEMP:  41; 6HR MAX TEMP:  53;

MOSBY          CLEAR     45  28  53 S5        30.11F
WARRENSBURG    CLEAR     41  28  60 SE6       30.15F
WHITEMAN AFB   CLEAR     39  27  62 S7        30.11F WCI  34
6HR MIN TEMP:  38; 6HR MAX TEMP:  48;

CLINTON        CLEAR     41  27  56 MISG      30.17F
SEDALIA        CLEAR     41  28  60 S7        30.17F
6HR MIN TEMP:  41; 6HR MAX TEMP:  48;

WARSAW         NOT AVBL
CHILLICOTHE      N/A     42  26  53 S5        30.12F
6HR MIN TEMP:  40; 6HR MAX TEMP:  49;

KIRKSVILLE     CLEAR     37  26  64 S8        30.11F WCI  31
6HR MIN TEMP:  36; 6HR MAX TEMP:  45;


$$

MOZ041-047>049-056>058-063>065-088>090-097-200100-
...EASTERN AND SOUTHERN MISSOURI...

CITY           SKY/WX    TMP DP  RH WIND       PRES   REMARKS
ST. LOUIS INTL CLEAR     36  23  59 CALM      30.20S
6HR MIN TEMP:  35; 6HR MAX TEMP:  43;

SPIRIT OF STL  CLEAR     33  23  66 CALM      30.19S
COLUMBIA       CLEAR     38  24  57 S6        30.17S WCI  33
JEFFERSON CITY CLEAR     41  24  51 SE3       30.18F
ROLLA          CLEAR     29  22  75 CALM      30.19S
OSAGE BEACH    CLEAR     41  23  48 S3        30.19S
SPRINGFIELD    CLEAR     39  28  64 CALM      30.18S
BRANSON        PTCLDY    41  25  52 CALM      30.20F
JOPLIN         CLEAR     43  30  60 S6        30.19S
WEST PLAINS    CLEAR     39  18  42 CALM      30.20S

$$

IAZ060-094-KSZ022-034>040-054-083-096-NEZ052-066-093-200100-
...KANSAS...SOUTHEAST NEBRASKA AND IOWA...

CITY           SKY/WX    TMP DP  RH WIND       PRES   REMARKS
TOPEKA         CLEAR     49  24  37 S6        30.08F
6HR MIN TEMP:  49; 6HR MAX TEMP:  58;

MANHATTAN      CLEAR     48  22  35 SW6       30.06S
EMPORIA        CLEAR     43  23  45 S12       30.10F
CHANUTE        CLEAR     45  30  55 S9        30.15F
WICHITA        CLOUDY    48  25  40 S10       30.09F
OMAHA          PTCLDY    45  25  45 S8        29.98R
LINCOLN        CLEAR     48  24  39 SW9       29.98F
FALLS CITY     CLEAR     46  24  42 S8        30.03F
LAMONI         CLEAR     40  27  59 S9        30.04F WCI  34
DES MOINES     CLOUDY    41  26  55 S9        30.01F

$$





USA.gov is the U.S. government's official web portal to all federal, state and local government web resources and services.